TimeEST,TemperatureF,Dew PointF,Humidity,Sea Level PressureIn,VisibilityMPH,Wind Direction,Wind SpeedMPH,Gust SpeedMPH,PrecipitationIn,Events,Conditions,WindDirDegrees,DateUTC
12:15 AM,46.4,33.8,62,29.76,10.0,SW,3.5,-,N/A,,Clear,230,2013-02-28 05:15:00
12:55 AM,44.6,33.8,66,29.76,10.0,SW,3.5,-,N/A,,Clear,230,2013-02-28 05:55:00
1:15 AM,44.6,33.8,66,29.77,10.0,WSW,3.5,-,N/A,,Clear,240,2013-02-28 06:15:00
1:35 AM,42.8,33.8,70,29.76,10.0,SW,3.5,-,N/A,,Scattered Clouds,220,2013-02-28 06:35:00
1:55 AM,41.0,33.8,76,29.76,10.0,SSW,3.5,-,N/A,,Scattered Clouds,210,2013-02-28 06:55:00
2:15 AM,41.0,33.8,76,29.76,10.0,SW,3.5,-,N/A,,Clear,230,2013-02-28 07:15:00
2:35 AM,39.2,33.8,81,29.76,10.0,Calm,Calm,-,N/A,,Scattered Clouds,0,2013-02-28 07:35:00
2:55 AM,37.4,33.8,87,29.76,10.0,Calm,Calm,-,N/A,,Clear,0,2013-02-28 07:55:00
3:15 AM,37.4,33.8,87,29.75,10.0,Calm,Calm,-,N/A,,Clear,0,2013-02-28 08:15:00
3:35 AM,37.4,33.8,87,29.75,10.0,SW,3.5,-,N/A,,Clear,230,2013-02-28 08:35:00
4:15 AM,41.0,32.0,70,29.74,10.0,WSW,3.5,-,N/A,,Clear,240,2013-02-28 09:15:00
4:35 AM,42.8,32.0,66,29.74,10.0,WSW,5.8,-,N/A,,Clear,250,2013-02-28 09:35:00
6:15 AM,41.0,32.0,70,29.77,10.0,Calm,Calm,-,N/A,,Clear,0,2013-02-28 11:15:00
6:35 AM,37.4,32.0,81,29.77,10.0,Calm,Calm,-,N/A,,Clear,0,2013-02-28 11:35:00
7:15 AM,35.6,32.0,87,29.78,10.0,Calm,Calm,-,N/A,,Clear,0,2013-02-28 12:15:00
7:35 AM,37.4,32.0,81,29.79,10.0,Calm,Calm,-,N/A,,Clear,0,2013-02-28 12:35:00
8:15 AM,42.8,32.0,66,29.80,10.0,WSW,4.6,-,N/A,,Clear,250,2013-02-28 13:15:00
8:35 AM,44.6,32.0,61,29.81,10.0,West,4.6,-,N/A,,Clear,260,2013-02-28 13:35:00
9:15 AM,44.6,32.0,61,29.82,10.0,WNW,4.6,-,N/A,,Clear,290,2013-02-28 14:15:00
9:35 AM,46.4,32.0,57,29.82,10.0,West,4.6,-,N/A,,Scattered Clouds,260,2013-02-28 14:35:00
10:15 AM,50.0,32.0,50,29.82,10.0,WNW,8.1,-,N/A,,Clear,300,2013-02-28 15:15:00
10:35 AM,46.4,30.2,53,29.82,10.0,West,4.6,-,N/A,,Scattered Clouds,260,2013-02-28 15:35:00
11:15 AM,46.4,28.4,50,29.83,10.0,WNW,6.9,-,N/A,,Mostly Cloudy,300,2013-02-28 16:15:00
11:35 AM,50.0,28.4,43,29.82,10.0,West,8.1,-,N/A,,Mostly Cloudy,260,2013-02-28 16:35:00
12:15 PM,50.0,28.4,43,29.82,10.0,SW,4.6,-,N/A,,Overcast,220,2013-02-28 17:15:00
12:35 PM,50.0,28.4,43,29.82,10.0,WSW,4.6,-,N/A,,Overcast,240,2013-02-28 17:35:00
1:35 PM,50.0,28.4,43,29.80,10.0,WSW,5.8,-,N/A,,Overcast,250,2013-02-28 18:35:00
2:15 PM,50.0,28.4,43,29.80,10.0,WSW,5.8,-,N/A,,Overcast,240,2013-02-28 19:15:00
2:35 PM,50.0,28.4,43,29.80,10.0,West,8.1,-,N/A,,Overcast,260,2013-02-28 19:35:00
3:15 PM,50.0,30.2,47,29.80,10.0,West,4.6,-,N/A,,Overcast,270,2013-02-28 20:15:00
3:35 PM,50.0,30.2,47,29.80,10.0,West,5.8,-,N/A,,Overcast,260,2013-02-28 20:35:00
4:35 PM,50.0,30.2,47,29.82,10.0,West,4.6,-,N/A,,Overcast,280,2013-02-28 21:35:00
5:15 PM,50.0,30.2,47,29.83,10.0,West,4.6,-,N/A,,Overcast,270,2013-02-28 22:15:00
5:35 PM,50.0,32.0,50,29.83,10.0,WNW,3.5,-,N/A,,Overcast,290,2013-02-28 22:35:00
6:15 PM,46.4,30.2,53,29.85,10.0,NNW,4.6,-,N/A,,Overcast,330,2013-02-28 23:15:00
6:35 PM,46.4,28.4,50,29.86,10.0,NNW,5.8,-,N/A,,Overcast,330,2013-02-28 23:35:00
6:55 PM,44.6,28.4,53,29.87,10.0,NW,3.5,-,N/A,,Mostly Cloudy,320,2013-02-28 23:55:00
7:15 PM,44.6,28.4,53,29.87,10.0,WNW,4.6,-,N/A,,Mostly Cloudy,300,2013-03-01 00:15:00
7:35 PM,42.8,30.2,61,29.87,10.0,WNW,4.6,-,N/A,,Mostly Cloudy,300,2013-03-01 00:35:00
7:55 PM,42.8,28.4,57,29.88,10.0,NNW,6.9,-,N/A,,Scattered Clouds,340,2013-03-01 00:55:00
8:15 PM,42.8,30.2,61,29.88,10.0,North,6.9,-,N/A,,Mostly Cloudy,350,2013-03-01 01:15:00
8:35 PM,42.8,30.2,61,29.88,10.0,NW,5.8,-,N/A,,Scattered Clouds,320,2013-03-01 01:35:00
8:55 PM,41.0,28.4,61,29.89,10.0,WNW,5.8,-,N/A,,Clear,300,2013-03-01 01:55:00
9:15 PM,41.0,28.4,61,29.89,10.0,NW,4.6,-,N/A,,Clear,310,2013-03-01 02:15:00
9:35 PM,39.2,28.4,65,29.90,10.0,WNW,4.6,-,N/A,,Clear,300,2013-03-01 02:35:00
10:15 PM,37.4,28.4,70,29.90,10.0,WNW,4.6,-,N/A,,Clear,300,2013-03-01 03:15:00
10:35 PM,37.4,28.4,70,29.90,10.0,WNW,4.6,-,N/A,,Clear,290,2013-03-01 03:35:00
10:55 PM,35.6,28.4,75,29.91,10.0,West,3.5,-,N/A,,Clear,280,2013-03-01 03:55:00
11:35 PM,35.6,28.4,75,29.90,10.0,West,3.5,-,N/A,,Clear,280,2013-03-01 04:35:00
11:55 PM,35.6,28.4,75,29.90,10.0,WNW,5.8,-,N/A,,Clear,300,2013-03-01 04:55:00